"2022-07-27",00:01,10.608,10.505,10.41,10.51,6.588,10.39,86.8,-8.235,-7.811,308.4,346.6,-38.6,-1.734,-1.446,294.7,0,7999.,0.,100000,101.9573,0.2,0.2,2.246,2.37,308.867,0.566,0.88,324.203,0.794,18.198,19.149,19.084,-999,14.76,12.83,17.363,-999.,-999.,20.536,-6.668,-5.859,-6.414,-26.973,0.265,0.326,0.35,0.767,0.251,0.323,0.412,0.725,0.512,,100.,0.,0.,0.,191.,94.8,94.8
"2022-07-27",00:02,10.599,10.499,10.42,10.52,6.556,10.38,86.9,-8.084,-7.726,308.5,346.7,-38.6,-1.734,-1.631,294.8,0,7999.,0.,100000,101.9595,0.2,0.2,2.252,2.55,309.933,0.65,0.78,325.008,0.794,18.198,19.166,19.084,-999,14.764,12.823,17.359,-999.,-999.,20.536,-6.691,-5.885,-6.432,-27.005,0.265,0.326,0.35,0.767,0.251,0.323,0.412,0.724,0.512,,100.,0.,0.,0.,191.,94.8,94.8
"2022-07-27",00:03,10.595,10.502,10.42,10.53,6.487,10.38,87.,-8.009,-7.673,308.2,346.6,-38.7,-1.734,-1.942,294.7,0,7999.,0.,100000,101.9693,0.2,0.2,2.337,2.55,308.933,0.543,0.71,318.537,0.794,18.198,19.153,19.08,-999,14.75,12.817,17.356,-999.,-999.,20.529,-6.715,-5.909,-6.454,-27.035,0.265,0.326,0.349,0.767,0.251,0.323,0.412,0.725,0.512,,100.,0.,0.,0.,191.,94.8,94.8
"2022-07-27",00:04,10.575,10.502,10.43,10.54,6.471,10.37,87.1,-7.945,-7.598,308.3,346.5,-38.5,-1.734,-1.755,294.4,0,7999.,0.,100000,101.9684,0.2,0.2,2.169,2.42,308.8,0.596,0.73,318.075,0.794,18.181,19.153,19.08,-999,14.757,12.81,17.33,-999.,-999.,20.529,-6.739,-5.933,-6.474,-27.067,0.265,0.326,0.349,0.767,0.251,0.323,0.412,0.724,0.512,,100.,0.,0.,0.,191.,94.8,94.8
"2022-07-27",00:05,10.585,10.505,10.44,10.56,6.415,10.36,87.2,-7.88,-7.534,308.1,346.6,-38.8,-1.734,-1.816,294.3,0,7999.,0.,100000,101.9632,0.2,0.2,2.341,2.59,305.8,0.419,0.61,308.254,0.794,18.165,19.153,19.08,-999,14.753,12.803,17.307,-999.,-999.,20.526,-6.759,-5.957,-6.494,-27.099,0.265,0.326,0.349,0.767,0.251,0.323,0.412,0.725,0.512,,100.,0.,0.,0.,191.,94.8,94.8
"2022-07-27",00:06,10.595,10.505,10.49,10.6,6.425,10.38,87.3,-7.826,-7.47,307.9,346.5,-39.0,-1.734,-1.754,294.3,0,7999.,0.,100000,101.9617,0.2,0.2,2.507,2.68,305.934,0.56,0.81,306.847,0.794,18.158,19.149,19.08,-999,14.75,12.81,17.288,-999.,-999.,20.533,-6.785,-5.982,-6.513,-27.13,0.265,0.326,0.35,0.767,0.251,0.323,0.412,0.724,0.512,,100.,0.,0.,0.,191.,94.8,94.8
"2022-07-27",00:07,10.606,10.505,10.51,10.62,6.412,10.39,87.4,-7.783,-7.396,308.1,346.4,-38.7,-1.734,-1.812,294.3,0,7999.,0.,100000,101.9675,0.2,0.2,2.387,2.58,305.4,0.585,0.81,305.329,0.794,18.142,19.149,19.087,-999,14.743,12.803,17.291,-999.,-999.,20.53,-6.806,-6.007,-6.535,-27.163,0.265,0.326,0.349,0.767,0.251,0.323,0.412,0.725,0.512,,100.,0.,0.,0.,191.,94.8,94.8
"2022-07-27",00:08,10.609,10.505,10.53,10.63,6.412,10.39,87.4,-7.74,-7.322,308.,346.4,-38.8,-1.734,-1.749,294.2,0,7999.,0.,100000,101.9596,0.2,0.2,2.252,2.33,305.133,0.541,0.73,311.599,0.794,18.138,19.149,19.087,-999,14.744,12.8,17.302,-999.,-999.,20.53,-6.83,-6.031,-6.554,-27.193,0.265,0.326,0.35,0.767,0.251,0.323,0.411,0.725,0.512,,100.,0.,0.,0.,191.,94.8,94.8
"2022-07-27",00:09,10.626,10.505,10.52,10.63,6.487,10.42,87.5,-7.73,-7.247,307.9,346.1,-38.7,-1.638,-1.626,294.1,0,7999.,0.,100000,101.9669,0.2,0.2,2.384,2.51,304.533,0.617,0.79,313.678,0.794,18.125,19.153,19.084,-999,14.75,12.8,17.295,-999.,-999.,20.52,-6.851,-6.055,-6.572,-27.225,0.265,0.326,0.35,0.767,0.251,0.323,0.412,0.725,0.512,,100.,0.,0.,0.,191.,94.8,94.8
"2022-07-27",00:10,10.626,10.548,10.54,10.64,6.5,10.44,87.6,-7.697,-7.237,307.8,346.2,-38.9,-1.493,-1.752,293.9,0,7999.,0.,100000,101.9688,0.2,0.2,2.336,2.43,304.067,0.695,0.84,311.795,0.794,18.119,19.149,19.08,-999,14.744,12.797,17.269,-999.,-999.,20.513,-6.874,-6.081,-6.593,-27.258,0.265,0.326,0.349,0.767,0.251,0.323,0.412,0.725,0.512,,100.,0.,0.,0.,191.,94.8,94.8
"2022-07-27",00:11,10.626,10.545,10.55,10.65,6.497,10.44,87.6,-7.676,-7.194,307.7,346.,-38.8,-1.59,-1.815,294.2,0,7999.,0.,100000,101.9553,0.2,0.2,2.326,2.48,304.8,0.557,0.72,314.597,0.794,18.126,19.143,19.084,-999,14.764,12.8,17.27,-999.,-999.,20.513,-6.897,-6.104,-6.613,-27.291,0.265,0.326,0.349,0.767,0.251,0.323,0.412,0.725,0.512,,100.,0.,0.,0.,191.,94.8,94.8
"2022-07-27",00:12,10.626,10.522,10.55,10.65,6.5,10.45,87.6,-7.633,-7.152,307.9,346.1,-38.7,-1.493,-1.689,294.2,0,7999.,0.,100000,101.9579,0.2,0.2,2.273,2.52,305.267,0.547,0.75,318.2,0.794,18.119,19.149,19.08,-999,14.758,12.797,17.244,-999.,-999.,20.506,-6.919,-6.131,-6.634,-27.322,0.265,0.326,0.35,0.767,0.251,0.323,0.412,0.725,0.512,,100.,0.,0.,0.,191.,94.8,94.8
"2022-07-27",00:13,10.606,10.519,10.52,10.64,6.5,10.44,87.6,-7.611,-7.131,307.6,345.9,-38.8,-1.445,-1.689,293.8,0,7999.,0.,100000,101.954,0.2,0.2,2.307,2.52,305.333,0.576,0.88,317.073,0.794,18.122,19.15,19.08,-999,14.775,12.8,17.258,-999.,-999.,20.507,-6.942,-6.155,-6.654,-27.353,0.265,0.326,0.349,0.767,0.251,0.323,0.412,0.724,0.512,,100.,0.,0.,0.,191.,94.8,94.8
"2022-07-27",00:14,10.56,10.536,10.5,10.63,6.497,10.42,87.5,-7.601,-7.141,307.5,345.9,-38.9,-1.445,-1.751,293.9,0,7999.,0.,100000,101.961,0.2,0.2,2.385,2.5,306.133,0.592,0.85,316.219,0.794,18.109,19.137,19.08,-999,14.782,12.8,17.258,-999.,-999.,20.514,-6.964,-6.181,-6.673,-27.389,0.265,0.326,0.349,0.767,0.251,0.323,0.412,0.725,0.512,,100.,0.,0.,0.,191.,94.8,94.8
"2022-07-27",00:15,10.547,10.5,10.45,10.61,6.435,10.41,87.5,-7.611,-7.12,307.5,345.7,-38.7,-1.445,-1.875,294.1,0,7999.,0.,100000,101.9643,0.2,0.2,2.385,2.54,307.866,0.627,0.79,321.533,0.794,18.093,19.14,19.091,-999,14.789,12.797,17.241,-999.,-999.,20.503,-6.986,-6.206,-6.693,-27.418,0.265,0.326,0.349,0.767,0.251,0.323,0.412,0.725,0.512,,100.,0.,0.,0.,191.,94.8,94.8
"2022-07-27",00:16,10.544,10.48,10.44,10.59,6.409,10.4,87.5,-7.611,-7.141,307.6,345.9,-38.8,-1.445,-1.751,293.8,0,7999.,0.,100000,101.9678,0.2,0.2,2.44,2.6,306.533,0.573,0.86,316.678,0.794,18.076,19.121,19.084,-999,14.782,12.8,17.212,-999.,-999.,20.5,-7.006,-6.231,-6.714,-27.454,0.265,0.326,0.349,0.767,0.251,0.323,0.412,0.724,0.512,,100.,0.,0.,0.,191.,94.8,94.8
"2022-07-27",00:17,10.518,10.457,10.44,10.58,6.363,10.38,87.5,-7.601,-7.131,307.2,345.7,-39.0,-1.638,-1.561,293.6,0,7999.,0.,100000,101.9594,0.2,0.2,2.362,2.46,305.6,0.523,0.78,310.265,0.794,18.079,19.114,19.088,-999,14.799,12.797,17.192,-999.,-999.,20.5,-7.031,-6.255,-6.732,-27.487,0.265,0.326,0.349,0.767,0.251,0.323,0.412,0.725,0.512,,100.,0.,0.,0.,191.,94.8,94.8
"2022-07-27",00:18,10.485,10.461,10.41,10.55,6.353,10.38,87.4,-7.622,-7.141,307.4,345.7,-38.8,-1.59,-1.809,293.8,0,7999.,0.,100000,101.9607,0.2,0.2,2.359,2.46,306.533,0.479,0.62,313.331,0.794,18.063,19.105,19.081,-999,14.803,12.8,17.183,-999.,-999.,20.514,-7.052,-6.281,-6.753,-27.521,0.265,0.326,0.349,0.767,0.251,0.323,0.412,0.724,0.512,,100.,0.,0.,0.,191.,94.8,94.8
"2022-07-27",00:19,10.468,10.464,10.38,10.53,6.386,10.37,87.5,-7.622,-7.152,307.2,345.5,-38.8,-1.734,-1.996,293.6,0,7999.,0.,100000,101.9661,0.2,0.2,2.329,2.4,307.333,0.507,0.7,321.568,0.794,18.046,19.081,19.058,-999,14.803,12.8,17.183,-999.,-999.,20.494,-7.074,-6.307,-6.773,-27.553,0.265,0.326,0.349,0.767,0.251,0.323,0.412,0.724,0.512,,100.,0.,0.,0.,191.,94.8,94.8
"2022-07-27",00:20,10.465,10.461,10.35,10.5,6.393,10.36,87.5,-7.622,-7.141,306.8,345.3,-39.0,-1.734,-1.871,293.4,0,7999.,0.,100000,101.9524,0.2,0.2,2.241,2.33,306.733,0.519,0.63,314.867,0.794,18.04,19.088,19.065,-999,14.803,12.797,17.166,-999.,-999.,20.501,-7.096,-6.33,-6.793,-27.582,0.265,0.326,0.349,0.766,0.251,0.323,0.412,0.724,0.512,,100.,0.,0.,0.,191.,94.8,94.8
"2022-07-27",00:21,10.462,10.458,10.35,10.49,6.423,10.35,87.5,-7.633,-7.13,306.9,345.4,-39.0,-1.734,-1.747,293.4,0,7999.,0.,100000,101.9597,0.2,0.2,2.047,2.13,307.667,0.479,0.67,319.851,0.794,18.04,19.095,19.068,-999,14.803,12.804,17.15,-999.,-999.,20.494,-7.12,-6.357,-6.814,-27.615,0.265,0.326,0.35,0.767,0.251,0.323,0.412,0.725,0.512,,100.,0.,0.,0.,191.,94.8,94.8
"2022-07-27",00:22,10.468,10.422,10.35,10.47,6.383,10.34,87.5,-7.644,-7.152,306.8,345.2,-38.9,-1.734,-1.495,293.2,0,7999.,0.,100000,101.9547,0.2,0.2,2.18,2.29,308.2,0.551,0.69,322.738,0.794,18.033,19.092,19.072,-999,14.803,12.797,17.114,-999.,-999.,20.501,-7.141,-6.383,-6.833,-27.645,0.265,0.326,0.349,0.767,0.251,0.322,0.411,0.725,0.512,,100.,0.,0.,0.,191.,94.8,94.8
"2022-07-27",00:23,10.472,10.448,10.38,10.51,6.37,10.36,87.6,-7.633,-7.184,307.,344.9,-38.3,-1.734,-1.868,293.3,0,7999.,0.,100000,101.9525,0.2,0.2,2.167,2.21,307.333,0.555,0.76,316.551,0.794,18.02,19.092,19.065,-999,14.803,12.797,17.104,-999.,-999.,20.515,-7.163,-6.407,-6.853,-27.682,0.265,0.326,0.35,0.767,0.251,0.323,0.412,0.724,0.512,,100.,0.,0.,0.,191.,94.8,94.8
"2022-07-27",00:24,10.472,10.468,10.43,10.54,6.255,10.36,87.8,-7.633,-7.184,307.1,345.1,-38.4,-1.734,-1.869,293.4,0,7999.,0.,100000,101.9635,0.2,0.2,2.192,2.31,306.467,0.52,0.72,317.132,0.794,18.001,19.088,19.062,-999,14.803,12.797,17.104,-999.,-999.,20.515,-7.185,-6.431,-6.873,-27.712,0.265,0.326,0.349,0.766,0.251,0.322,0.412,0.725,0.512,,100.,0.,0.,0.,191.,94.8,94.8
"2022-07-27",00:25,10.482,10.468,10.42,10.54,6.147,10.36,87.8,-7.601,-7.194,306.9,345.1,-38.6,-1.734,-1.745,293.5,0,7999.,0.,100000,101.9612,0.2,0.2,2.179,2.46,305.,0.554,0.73,315.272,0.794,18.015,19.092,19.062,-999,14.803,12.798,17.104,-999.,-999.,20.511,-7.207,-6.456,-6.893,-27.745,0.265,0.326,0.349,0.767,0.251,0.322,0.412,0.724,0.512,,100.,0.,0.,0.,191.,94.8,94.8
"2022-07-27",00:26,10.492,10.468,10.41,10.53,6.098,10.38,87.8,-7.568,-7.152,306.5,344.6,-38.5,-1.734,-1.994,293.3,0,7999.,0.,100000,101.9559,0.2,0.2,2.147,2.34,306.333,0.406,0.59,312.401,0.794,18.004,19.092,19.065,-999,14.803,12.787,17.094,-999.,-999.,20.511,-7.227,-6.483,-6.913,-27.775,0.265,0.326,0.349,0.767,0.251,0.323,0.412,0.725,0.512,,100.,0.,0.,0.,191.,94.8,94.8
"2022-07-27",00:27,10.485,10.468,10.37,10.5,6.095,10.36,87.8,-7.59,-7.141,306.3,344.6,-38.7,-1.734,-2.056,293.2,0,7999.,0.,100000,101.9488,0.2,0.2,1.949,2.08,306.4,0.312,0.46,320.186,0.794,17.984,19.092,19.062,-999,14.803,12.788,17.084,-999.,-999.,20.511,-7.249,-6.505,-6.933,-27.807,0.265,0.326,0.349,0.767,0.251,0.323,0.412,0.725,0.512,,100.,0.,0.,0.,191.,94.8,94.8
"2022-07-27",00:28,10.453,10.425,10.33,10.47,6.154,10.34,87.8,-7.611,-7.152,306.2,344.4,-38.7,-1.734,-1.745,293.2,0,7999.,0.,100000,101.9649,0.2,0.2,1.953,2.1,307.533,0.265,0.36,326.657,0.794,17.985,19.092,19.069,-999,14.803,12.805,17.054,-999.,-999.,20.511,-7.269,-6.533,-6.954,-27.84,0.265,0.326,0.349,0.767,0.251,0.323,0.412,0.725,0.511,,100.,0.,0.,0.,191.,94.8,94.8
"2022-07-27",00:29,10.403,10.389,10.3,10.42,6.226,10.31,87.7,-7.644,-7.216,306.,344.3,-38.7,-1.734,-1.62,293.1,0,7999.,0.,100000,101.9555,0.2,0.2,1.887,2.06,308.067,0.363,0.46,333.803,0.794,17.979,19.092,19.062,-999,14.803,12.805,17.028,-999.,-999.,20.511,-7.292,-6.557,-6.973,-27.871,0.265,0.326,0.349,0.767,0.251,0.323,0.411,0.725,0.511,,100.,0.,0.,0.,191.,94.8,94.8
"2022-07-27",00:30,10.403,10.392,10.3,10.39,6.226,10.27,87.6,-7.73,-7.258,306.2,344.4,-38.7,-1.734,-1.556,293.,0,7999.,0.,100000,101.9552,0.2,0.2,1.941,2.05,309.,0.387,0.44,330.866,0.794,17.979,19.092,19.062,-999,14.803,12.809,17.025,-999.,-999.,20.511,-7.314,-6.582,-6.994,-27.902,0.264,0.326,0.349,0.766,0.251,0.323,0.412,0.725,0.512,,100.,0.,0.,0.,191.,94.8,94.8
"2022-07-27",00:31,10.423,10.392,10.32,10.4,6.223,10.27,87.7,-7.762,-7.279,306.5,344.5,-38.5,-1.734,-1.431,293.,0,7999.,0.,100000,101.9659,0.2,0.2,2.049,2.18,310.2,0.501,0.59,330.467,0.794,17.971,19.092,19.062,-999,14.803,12.819,17.025,-999.,-999.,20.511,-7.335,-6.605,-7.015,-27.937,0.265,0.326,0.349,0.767,0.251,0.323,0.412,0.725,0.512,,100.,0.,0.,0.,191.,94.8,94.8
"2022-07-27",00:32,10.486,10.409,10.37,10.45,6.226,10.3,87.9,-7.751,-7.301,306.5,344.5,-38.5,-1.734,-1.865,293.,0,7999.,0.,100000,101.9634,0.2,0.2,1.937,2.04,311.733,0.477,0.62,329.595,0.794,17.982,19.092,19.062,-999,14.803,12.812,17.018,-999.,-999.,20.511,-7.357,-6.628,-7.034,-27.968,0.264,0.326,0.349,0.767,0.251,0.322,0.411,0.725,0.511,,100.,0.,0.,0.,191.,94.8,94.8
"2022-07-27",00:33,10.489,10.468,10.43,10.49,6.197,10.31,88.,-7.73,-7.269,306.4,344.6,-38.7,-1.734,-1.74,293.,0,7999.,0.,100000,101.9544,0.2,0.2,1.917,2.,312.467,0.481,0.58,334.072,0.794,17.972,19.092,19.062,-999,14.803,12.823,16.992,-999.,-999.,20.515,-7.377,-6.652,-7.053,-27.997,0.264,0.326,0.349,0.767,0.251,0.322,0.412,0.725,0.511,,100.,0.,0.,0.,191.,94.8,94.8
"2022-07-27",00:34,10.505,10.475,10.47,10.53,6.148,10.33,88.1,-7.665,-7.258,306.1,344.4,-38.7,-1.734,-1.803,292.8,0,7999.,0.,100000,101.9582,0.2,0.2,1.882,2.01,314.2,0.537,0.66,330.786,0.794,17.956,19.088,19.065,-999,14.803,12.816,16.966,-999.,-999.,20.511,-7.4,-6.676,-7.072,-28.026,0.264,0.326,0.349,0.767,0.251,0.322,0.412,0.724,0.511,,100.,0.,0.,0.,191.,94.8,94.8
"2022-07-27",00:35,10.551,10.498,10.46,10.55,6.131,10.32,88.2,-7.633,-7.258,306.1,344.3,-38.6,-1.734,-1.991,292.7,0,7999.,0.,100000,101.9601,0.2,0.2,1.809,1.87,315.067,0.595,0.69,333.867,0.794,17.939,19.092,19.065,-999,14.803,12.816,16.95,-999.,-999.,20.511,-7.42,-6.702,-7.094,-28.058,0.264,0.326,0.349,0.767,0.251,0.322,0.412,0.725,0.511,,100.,0.,0.,0.,191.,94.8,94.8
"2022-07-27",00:36,10.568,10.544,10.5,10.58,6.105,10.32,88.3,-7.622,-7.258,306.,344.1,-38.5,-1.734,-1.866,292.5,0,7999.,0.,100000,101.9517,0.2,0.2,1.719,1.82,316.8,0.571,0.69,333.264,0.794,17.939,19.082,19.062,-999,14.806,12.823,16.95,-999.,-999.,20.511,-7.44,-6.725,-7.114,-28.089,0.264,0.326,0.349,0.767,0.251,0.322,0.412,0.724,0.511,,100.,0.,0.,0.,191.,94.8,94.8
"2022-07-27",00:37,10.584,10.567,10.57,10.64,6.086,10.36,88.4,-7.622,-7.216,306.,344.2,-38.6,-1.734,-1.864,292.5,0,7999.,0.,100000,101.95,0.2,0.2,1.642,1.73,320.067,0.529,0.61,326.527,0.794,17.939,19.075,19.059,-999,14.806,12.82,16.95,-999.,-999.,20.508,-7.461,-6.749,-7.133,-28.118,0.264,0.325,0.349,0.767,0.251,0.322,0.412,0.725,0.511,,100.,0.,0.,0.,191.,94.8,94.8
"2022-07-27",00:38,10.597,10.577,10.56,10.65,6.076,10.37,88.4,-7.644,-7.248,305.8,344.2,-38.8,-1.734,-1.677,292.4,0,7999.,0.,100000,101.9506,0.2,0.2,1.487,1.67,324.93,0.523,0.63,338.062,0.794,17.92,19.075,19.045,-999,14.803,12.82,16.94,-999.,-999.,20.511,-7.484,-6.773,-7.153,-28.15,0.264,0.325,0.349,0.767,0.251,0.323,0.411,0.725,0.511,,100.,0.,0.,0.,191.,94.8,94.8
"2022-07-27",00:39,10.561,10.544,10.38,10.55,6.109,10.35,88.2,-7.644,-7.269,305.8,344.1,-38.7,-1.734,-1.678,292.4,0,7999.,0.,100000,101.9514,0.2,0.2,1.439,1.61,323.933,0.27,0.4,31.12,0.794,17.913,19.072,19.063,-999,14.806,12.82,16.92,-999.,-999.,20.515,-7.504,-6.796,-7.172,-28.179,0.264,0.326,0.349,0.766,0.251,0.322,0.412,0.724,0.511,,100.,0.,0.,0.,191.,94.8,94.8
"2022-07-27",00:40,10.476,10.458,10.27,10.42,6.073,10.28,88.,-7.784,-7.322,305.5,344.2,-39.2,-1.734,-1.928,292.3,0,7999.,0.,100000,101.9458,0.2,0.2,1.321,1.42,321.067,0.364,0.44,49.658,0.794,17.906,19.069,19.049,-999,14.806,12.82,16.904,-999.,-999.,20.522,-7.525,-6.82,-7.192,-28.205,0.264,0.326,0.349,0.767,0.251,0.323,0.412,0.724,0.511,,100.,0.,0.,0.,191.,94.8,94.8
"2022-07-27",00:41,10.374,10.37,10.21,10.35,6.04,10.23,87.8,-8.042,-7.524,305.5,344.8,-39.8,-1.734,-1.804,292.,0,7999.,0.,100000,101.9437,0.2,0.2,1.388,1.48,323.867,0.466,0.5,55.934,0.794,17.9,19.062,19.066,-999,14.803,12.82,16.88,-999.,-999.,20.522,-7.544,-6.844,-7.212,-28.237,0.264,0.325,0.349,0.767,0.251,0.322,0.412,0.725,0.511,,100.,0.,0.,0.,191.,94.8,94.8
"2022-07-27",00:42,10.302,10.324,10.19,10.31,6.063,10.19,87.7,-8.289,-7.652,305.2,344.4,-39.8,-1.734,-1.491,291.7,0,7999.,0.,100000,101.947,0.2,0.2,1.306,1.44,324.933,0.463,0.5,56.266,0.794,17.897,19.056,19.056,-999,14.803,12.82,16.867,-999.,-999.,20.515,-7.566,-6.869,-7.232,-28.268,0.264,0.325,0.349,0.767,0.251,0.323,0.412,0.725,0.511,,100.,0.,0.,0.,191.,94.8,94.8
"2022-07-27",00:43,10.252,10.294,10.23,10.31,6.069,10.17,87.7,-8.472,-7.673,305.,343.9,-39.7,-1.734,-1.366,291.5,0,7999.,0.,100000,101.9433,0.2,0.2,1.187,1.44,325.538,0.375,0.43,66.,0.794,17.897,19.039,19.043,-999,14.806,12.82,16.867,-999.,-999.,20.508,-7.586,-6.892,-7.251,-28.297,0.264,0.325,0.349,0.767,0.251,0.322,0.412,0.725,0.511,,100.,0.,0.,0.,191.,94.8,94.8
"2022-07-27",00:44,10.239,10.268,10.25,10.32,6.04,10.15,87.7,-8.579,-7.662,304.7,343.5,-39.7,-1.734,-1.49,291.9,0,7999.,0.,100000,101.9519,0.2,0.2,1.107,1.34,324.799,0.263,0.34,75.441,0.794,17.871,19.054,19.047,-999,14.799,12.82,16.844,-999.,-999.,20.525,-7.606,-6.916,-7.27,-28.323,0.264,0.325,0.349,0.767,0.251,0.322,0.412,0.724,0.511,,100.,0.,0.,0.,191.,94.8,94.8
"2022-07-27",00:45,10.183,10.268,10.2,10.31,5.938,10.14,87.7,-8.644,-7.673,305.2,343.6,-39.4,-1.734,-1.053,291.8,0,7999.,0.,100000,101.9491,0.2,0.2,1.138,1.34,323.465,0.381,0.48,88.592,0.794,17.864,19.047,19.04,-999,14.799,12.82,16.831,-999.,-999.,20.519,-7.626,-6.94,-7.29,-28.358,0.264,0.325,0.349,0.767,0.251,0.322,0.412,0.724,0.511,,100.,0.,0.,0.,191.,94.8,94.8
"2022-07-27",00:46,10.177,10.258,10.1,10.24,5.88,10.09,87.6,-8.698,-7.673,305.1,343.,-38.9,-1.734,-1.24,291.4,0,7999.,0.,100000,101.9538,0.2,0.2,1.036,1.25,322.992,0.321,0.49,108.68,0.794,17.854,19.058,19.044,-999,14.799,12.82,16.802,-999.,-999.,20.536,-7.648,-6.964,-7.309,-28.381,0.264,0.326,0.349,0.767,0.251,0.323,0.412,0.725,0.511,,100.,0.,0.,0.,191.,94.8,94.8
"2022-07-27",00:47,10.174,10.252,10.04,10.19,5.768,10.07,87.5,-8.784,-7.79,304.9,342.7,-38.8,-1.734,-1.177,291.6,0,7999.,0.,100000,101.9542,0.2,0.2,1.125,1.42,318.335,0.285,0.36,107.317,0.794,17.841,19.044,19.065,-999,14.799,12.82,16.792,-999.,-999.,20.54,-7.666,-6.987,-7.328,-28.413,0.264,0.326,0.349,0.767,0.251,0.322,0.412,0.724,0.51,,100.,0.,0.,0.,191.,94.8,94.8
"2022-07-27",00:48,10.17,10.252,10.01,10.11,5.781,10.02,87.3,-8.923,-7.949,305.1,342.8,-38.7,-2.023,-1.363,291.6,0,7999.,0.,100000,101.9542,0.2,0.2,1.087,1.51,312.863,0.237,0.29,129.519,0.794,17.824,19.044,19.068,-999,14.793,12.82,16.792,-999.,-999.,20.54,-7.688,-7.011,-7.346,-28.442,0.264,0.326,0.349,0.767,0.251,0.323,0.412,0.724,0.511,,100.,0.,0.,0.,191.,94.8,94.8
"2022-07-27",00:49,10.144,10.252,9.95,10.05,5.84,10.02,87.3,-9.031,-8.066,305.1,342.9,-38.8,-2.264,-1.3,291.7,0,7999.,0.,100000,101.9558,0.2,0.2,0.999,1.29,315.694,0.217,0.27,148.747,0.794,17.824,19.058,19.068,-999,14.783,12.823,16.788,-999.,-999.,20.548,-7.707,-7.035,-7.365,-28.476,0.264,0.326,0.349,0.767,0.251,0.322,0.412,0.725,0.51,,100.,0.,0.,0.,191.,94.8,94.8
"2022-07-27",00:50,10.095,10.219,9.9,10.01,5.827,10.02,87.3,-9.031,-8.151,304.7,342.6,-38.8,-2.312,-1.051,291.8,0,7999.,0.,100000,101.9524,0.2,0.2,0.983,1.31,313.933,0.213,0.29,126.268,0.794,17.824,19.055,19.065,-999,14.797,12.82,16.792,-999.,-999.,20.554,-7.728,-7.059,-7.386,-28.5,0.264,0.325,0.349,0.766,0.251,0.322,0.412,0.725,0.511,,100.,0.,0.,0.,191.,94.8,94.8
"2022-07-27",00:51,10.088,10.176,9.86,9.96,5.824,10.02,87.3,-9.106,-8.268,304.7,342.6,-38.7,-2.312,-1.237,291.6,0,7999.,0.,100000,101.9517,0.2,0.2,0.98,1.22,312.2,0.244,0.29,120.539,0.794,17.828,19.052,19.079,-999,14.787,12.82,16.779,-999.,-999.,20.568,-7.747,-7.083,-7.403,-28.529,0.264,0.325,0.349,0.767,0.251,0.322,0.412,0.725,0.51,,100.,0.,0.,0.,191.,94.8,94.8
"2022-07-27",00:52,10.062,10.17,9.85,9.94,5.798,10.02,87.3,-9.16,-8.332,305.,342.7,-38.5,-2.312,-0.988,291.7,0,7999.,0.,100000,101.9486,0.2,0.2,1.056,1.18,318.067,0.258,0.29,111.066,0.794,17.832,19.062,19.075,-999,14.77,12.82,16.764,-999.,-999.,20.568,-7.769,-7.105,-7.421,-28.563,0.264,0.325,0.349,0.767,0.251,0.323,0.412,0.725,0.51,,100.,0.,0.,0.,191.,94.8,94.8
"2022-07-27",00:53,10.016,10.14,9.86,9.93,5.775,10.02,87.3,-9.16,-8.364,305.1,342.7,-38.4,-2.168,-0.926,291.2,0,7999.,0.,100000,101.9522,0.2,0.2,0.969,1.08,320.866,0.301,0.34,104.864,0.794,17.832,19.073,19.083,-999,14.777,12.82,16.727,-999.,-999.,20.568,-7.789,-7.128,-7.441,-28.587,0.264,0.325,0.349,0.767,0.251,0.322,0.412,0.725,0.511,,100.,0.,0.,0.,191.,94.8,94.8
"2022-07-27",00:54,10.013,10.094,9.8,9.89,5.778,10.02,87.3,-9.128,-8.332,305.,342.8,-38.6,-2.023,-1.112,290.9,0,7999.,0.,100000,101.9484,0.2,0.2,0.967,1.11,320.401,0.37,0.44,94.933,0.794,17.819,19.076,19.086,-999,14.768,12.82,16.713,-999.,-999.,20.562,-7.806,-7.153,-7.46,-28.613,0.264,0.325,0.349,0.766,0.251,0.322,0.412,0.725,0.51,,100.,0.,0.,0.,191.,94.8,94.8
"2022-07-27",00:55,9.967,10.075,9.9,9.91,5.775,10.02,87.3,-9.149,-8.342,305.2,343.,-38.6,-2.023,-1.36,290.5,0,7999.,0.,100000,101.9513,0.2,0.2,0.883,1.08,323.528,0.315,0.44,90.734,0.794,17.809,19.073,19.079,-999,14.768,12.82,16.727,-999.,-999.,20.565,-7.827,-7.176,-7.479,-28.642,0.264,0.325,0.349,0.767,0.251,0.322,0.412,0.725,0.51,,100.,0.,0.,0.,191.,94.8,94.8
"2022-07-27",00:56,9.941,10.025,9.83,9.91,5.762,10.02,87.3,-9.052,-8.3,304.9,342.7,-38.6,-2.023,-1.298,290.7,0,7999.,0.,100000,101.9552,0.2,0.2,0.667,0.96,328.358,0.47,0.52,92.4,0.794,17.82,19.07,19.076,-999,14.768,12.82,16.721,-999.,-999.,20.562,-7.848,-7.197,-7.496,-28.674,0.264,0.325,0.349,0.767,0.251,0.322,0.412,0.725,0.51,,100.,0.,0.,0.,191.,94.8,94.8
"2022-07-27",00:57,9.937,10.016,9.73,9.86,5.775,10.02,87.3,-9.031,-8.247,304.8,342.8,-38.8,-2.023,-1.049,290.6,0,7999.,0.,100000,101.9451,0.2,0.2,0.555,0.77,330.932,0.627,0.72,96.467,0.794,17.817,19.063,19.073,-999,14.771,12.816,16.705,-999.,-999.,20.555,-7.865,-7.22,-7.517,-28.7,0.264,0.325,0.349,0.767,0.251,0.322,0.412,0.725,0.51,,100.,0.,0.,0.,191.,94.8,94.8
"2022-07-27",00:58,9.937,10.006,9.72,9.82,5.775,10.02,87.3,-9.031,-8.204,304.8,342.8,-38.8,-1.975,-1.173,290.4,0,7999.,0.,100000,101.9458,0.2,0.2,0.405,0.6,336.885,0.651,0.68,92.334,0.794,17.794,19.064,19.066,-999,14.764,12.816,16.672,-999.,-999.,20.546,-7.885,-7.244,-7.532,-28.729,0.264,0.325,0.349,0.766,0.25,0.322,0.412,0.724,0.51,,100.,0.,0.,0.,191.,94.8,94.8
"2022-07-27",00:59,9.908,9.947,9.72,9.81,5.759,10.02,87.3,-9.031,-8.215,304.8,342.8,-38.8,-1.782,-1.111,290.2,0,7999.,0.,100000,101.9547,0.2,0.2,0.391,0.52,335.334,0.702,0.76,96.533,0.794,17.788,19.067,19.07,-999,14.768,12.813,16.652,-999.,-999.,20.546,-7.905,-7.266,-7.552,-28.758,0.264,0.325,0.349,0.767,0.25,0.322,0.412,0.725,0.51,,100.,0.,0.,0.,191.,94.8,94.8
"2022-07-27",01:00,9.862,9.937,9.73,9.81,5.713,10.02,87.3,-9.031,-8.194,304.9,343.2,-39.1,-1.734,-0.986,290.1,0,7999.,0.,100000,101.9504,0.2,0.2,0.455,0.64,325.864,0.668,0.75,99.867,0.794,17.795,19.047,19.063,-999,14.764,12.82,16.652,-999.,-999.,20.536,-7.923,-7.291,-7.571,-28.79,0.264,0.325,0.349,0.766,0.251,0.322,0.412,0.725,0.51,,100.,0.,0.,0.,191.,94.8,94.8
"2022-07-27",01:01,9.859,9.933,9.75,9.81,5.628,10.02,87.3,-9.02,-8.204,304.5,342.6,-38.9,-1.734,-1.36,291.2,0,7999.,0.,100000,101.9603,0.2,0.2,0.405,0.68,314.087,0.52,0.57,104.533,0.794,17.795,19.037,19.066,-999,14.758,12.813,16.645,-999.,-999.,20.539,-7.944,-7.312,-7.588,-28.819,0.264,0.325,0.349,0.767,0.251,0.322,0.412,0.724,0.51,,100.,0.,0.,0.,191.,94.8,94.8
"2022-07-27",01:02,9.859,9.927,9.72,9.79,5.585,10.02,87.3,-9.031,-8.162,304.7,342.9,-39.1,-1.734,-1.173,291.3,0,7999.,0.,100000,101.9468,0.2,0.2,0.416,0.55,315.152,0.443,0.56,109.668,0.794,17.785,19.03,19.053,-999,14.758,12.807,16.645,-999.,-999.,20.536,-7.962,-7.336,-7.606,-28.842,0.264,0.325,0.349,0.767,0.251,0.322,0.412,0.724,0.51,,100.,0.,0.,0.,191.,94.8,94.8
"2022-07-27",01:03,9.862,9.894,9.74,9.77,5.51,10.02,87.3,-8.945,-8.151,304.9,342.7,-38.6,-1.734,-1.297,291.4,0,7999.,0.,100000,101.9495,0.2,0.2,0.369,0.5,316.149,0.367,0.45,107.802,0.794,17.776,19.034,19.063,-999,14.758,12.81,16.616,-999.,-999.,20.539,-7.981,-7.358,-7.624,-28.871,0.264,0.325,0.349,0.767,0.251,0.322,0.412,0.725,0.51,,100.,0.,0.,0.,191.,94.8,94.8
"2022-07-27",01:04,9.862,9.858,9.81,9.8,5.54,10.02,87.3,-8.902,-8.162,304.4,342.3,-38.6,-1.734,-1.172,291.1,0,7999.,0.,100000,101.9491,0.2,0.2,0.451,0.63,314.737,0.497,0.6,105.203,0.794,17.769,19.021,19.053,-999,14.748,12.803,16.599,-999.,-999.,20.536,-8.002,-7.382,-7.642,-28.9,0.264,0.325,0.349,0.766,0.25,0.322,0.412,0.724,0.51,,100.,0.,0.,0.,191.,94.8,94.8
"2022-07-27",01:05,9.862,9.858,9.83,9.8,5.556,10.02,87.3,-8.902,-8.162,304.5,342.4,-38.6,-1.734,-1.297,291.1,0,7999.,0.,100000,101.9502,0.2,0.2,0.614,0.83,317.807,0.414,0.5,107.8,0.794,17.766,19.021,19.06,-999,14.755,12.81,16.577,-999.,-999.,20.543,-8.02,-7.403,-7.66,-28.931,0.264,0.325,0.349,0.767,0.25,0.323,0.412,0.725,0.51,,100.,0.,0.,0.,191.,94.8,94.8